Weather History for Oklahoma City / Page Muni, OK

Change the Weather History Date:

Thursday, October 25, 2012

  Actual Average (KOKC) Record (KOKC)
Temperature  
Mean Temperature 56 °F 60 °F  
Max Temperature 71 °F 71 °F 87 °F (1939)
Min Temperature 42 °F 49 °F 29 °F (1957)
Degree Days  
Heating Degree Days 8 7  
Month to date heating degree days 99  
Since 1 July heating degree days 118  
Cooling Degree Days 0 1  
Month to date cooling degree days 61  
Year to date cooling degree days 2086  
Growing Degree Days 6 (Base 50)    
Moisture  
Dew Point 45 °F    
Average Humidity 70    
Maximum Humidity 88    
Minimum Humidity 51    
Precipitation  
Precipitation 0.00 in 0.12 in 1.65 in (1899)
Month to date precipitation 3.05  
Year to date precipitation 32.00  
Sea Level Pressure  
Sea Level Pressure 30.00 in    
Wind  
Wind Speed 20 mph (North)    
Max Wind Speed 28 mph    
Max Gust Speed 38 mph    
Visibility 10 miles    
Events Rain    
T = Trace of Precipitation, MM = Missing Value Source: NWS Daily Summary

Daily Weather History Graph

Daily Weather History Graph

Search for Another Location

Airport:

Trip Planner

Search our weather history database for the weather conditions in past years. The results will help you decide how hot, cold, wet, or windy it might be!

Date:

Astronomy

Oct. 25, 2012 Rise Set
Actual Time 7:46 AM CDT 6:43 PM CDT
Civil Twilight 7:20 AM CDT 7:09 PM CDT
Nautical Twilight 6:51 AM CDT 7:38 PM CDT
Astronomical Twilight 6:21 AM CDT 8:08 PM CDT
Moon 4:23 PM CDT (10/25) 3:52 AM CDT (10/25)
Length of Visible Light 11h 48m
Length of Day
10h 56m
Waxing Gibbous, 84% of the Moon is Illuminated
Oct 25
Waxing Gibbous
Oct 29
Full
Nov 6
Last Quarter
Nov 13
New
Nov 20
First Quarter

Hourly Weather History & Observations

Time (CDT) Temp. Windchill Dew Point Humidity Pressure Visibility Wind Dir Wind Speed Gust Speed Precip Events Conditions
12:15 AM 71.6 °F - 62.6 °F 73% 29.72 in 10.0 mi South 21.9 mph 34.5 mph N/A   Unknown
12:35 AM 71.6 °F - 62.6 °F 73% 29.73 in 10.0 mi South 24.2 mph 32.2 mph N/A   Unknown
12:55 AM 69.8 °F - 62.6 °F 78% 29.73 in 10.0 mi South 19.6 mph 29.9 mph N/A   Unknown
1:35 AM 69.8 °F - 62.6 °F 78% 29.74 in 10.0 mi South 19.6 mph 29.9 mph N/A   Unknown
1:55 AM 68.0 °F - 62.6 °F 83% 29.74 in 10.0 mi South 18.4 mph 26.5 mph N/A   Clear
2:35 AM 68.0 °F - 62.6 °F 83% 29.75 in 10.0 mi South 17.3 mph 24.2 mph N/A   Unknown
2:55 AM 68.0 °F - 62.6 °F 83% 29.75 in 10.0 mi South 18.4 mph 25.3 mph N/A   Unknown
3:15 AM 68.0 °F - 62.6 °F 83% 29.75 in 10.0 mi South 17.3 mph 23.0 mph N/A   Unknown
3:35 AM 68.0 °F - 62.6 °F 83% 29.74 in 10.0 mi South 17.3 mph 23.0 mph N/A   Unknown
3:55 AM 68.0 °F - 62.6 °F 83% 29.74 in 10.0 mi South 17.3 mph 24.2 mph N/A   Unknown
4:15 AM 68.0 °F - 62.6 °F 83% 29.74 in 10.0 mi South 17.3 mph 23.0 mph N/A   Unknown
4:35 AM 66.2 °F - 62.6 °F 88% 29.73 in 10.0 mi South 17.3 mph 24.2 mph N/A   Unknown
4:55 AM 68.0 °F - 62.6 °F 83% 29.74 in 10.0 mi South 18.4 mph 25.3 mph N/A   Unknown
5:15 AM 66.2 °F - 62.6 °F 88% 29.73 in 10.0 mi South 18.4 mph 25.3 mph N/A   Unknown
5:35 AM 66.2 °F - 62.6 °F 88% 29.73 in 10.0 mi South 18.4 mph 25.3 mph N/A   Unknown
5:55 AM 66.2 °F - 62.6 °F 88% 29.75 in 10.0 mi SSW 17.3 mph 24.2 mph N/A   Unknown
6:15 AM 66.2 °F - 62.6 °F 88% 29.77 in 10.0 mi SSW 16.1 mph 25.3 mph N/A   Unknown
6:35 AM 66.2 °F - 62.6 °F 88% 29.79 in 10.0 mi SSW 13.8 mph 19.6 mph N/A   Unknown
6:55 AM 66.2 °F - 60.8 °F 83% 29.79 in 10.0 mi SSW 12.7 mph 19.6 mph N/A   Unknown
7:15 AM 66.2 °F - 60.8 °F 83% 29.80 in 10.0 mi SSW 12.7 mph 18.4 mph N/A   Unknown
7:35 AM 60.8 °F - 53.6 °F 77% 29.86 in 10.0 mi NW 21.9 mph 34.5 mph N/A   Unknown
7:55 AM 55.4 °F - 46.4 °F 72% 29.89 in 10.0 mi NNW 25.3 mph 32.2 mph N/A   Unknown
8:35 AM 50.0 °F - 42.8 °F 76% 29.94 in 10.0 mi NNW 21.9 mph 31.1 mph N/A   Overcast
8:55 AM 50.0 °F - 41.0 °F 71% 29.97 in 9.0 mi North 24.2 mph 35.7 mph N/A   Overcast
9:15 AM 48.2 °F - 41.0 °F 76% 29.99 in 4.0 mi North 24.2 mph 33.4 mph N/A   Haze
9:35 AM 46.4 °F 39.0 °F 41.0 °F 81% 30.00 in 10.0 mi North 19.6 mph 28.8 mph N/A Rain Light Rain
9:55 AM 48.2 °F - 39.2 °F 71% 30.01 in 10.0 mi North 19.6 mph 29.9 mph N/A   Overcast
10:15 AM 48.2 °F - 39.2 °F 71% 30.03 in 10.0 mi North 26.5 mph 29.9 mph N/A   Overcast
10:35 AM 48.2 °F - 37.4 °F 66% 30.04 in 10.0 mi North 26.5 mph 31.1 mph N/A   Overcast
10:55 AM 48.2 °F - 37.4 °F 66% 30.05 in 10.0 mi North 23.0 mph 35.7 mph N/A   Overcast
11:15 AM 48.2 °F - 37.4 °F 66% 30.06 in 10.0 mi North 23.0 mph 29.9 mph N/A   Mostly Cloudy
11:35 AM 51.8 °F - 39.2 °F 62% 30.07 in 10.0 mi North 26.5 mph 33.4 mph N/A   Mostly Cloudy
11:55 AM 50.0 °F - 39.2 °F 66% 30.08 in 10.0 mi North 24.2 mph 34.5 mph N/A   Overcast
12:15 PM 50.0 °F - 37.4 °F 62% 30.08 in 10.0 mi North 24.2 mph 34.5 mph N/A   Overcast
12:35 PM 51.8 °F - 37.4 °F 58% 30.09 in 10.0 mi North 24.2 mph 33.4 mph N/A   Scattered Clouds
12:55 PM 51.8 °F - 37.4 °F 58% 30.09 in 10.0 mi NNW 27.6 mph 32.2 mph N/A   Mostly Cloudy
1:15 PM 53.6 °F - 37.4 °F 54% 30.09 in 10.0 mi North 21.9 mph 33.4 mph N/A   Overcast
1:55 PM 50.0 °F - 37.4 °F 62% 30.09 in 10.0 mi NNE 27.6 mph 34.5 mph N/A   Overcast
2:15 PM 53.6 °F - 37.4 °F 54% 30.10 in 10.0 mi North 23.0 mph 38.0 mph N/A   Mostly Cloudy
2:35 PM 51.8 °F - 37.4 °F 58% 30.10 in 10.0 mi North 24.2 mph 32.2 mph N/A   Scattered Clouds
2:55 PM 51.8 °F - 37.4 °F 58% 30.10 in 10.0 mi North 21.9 mph 33.4 mph N/A   Mostly Cloudy
3:15 PM 53.6 °F - 37.4 °F 54% 30.10 in 10.0 mi NNE 18.4 mph 28.8 mph N/A   Mostly Cloudy
3:35 PM 51.8 °F - 37.4 °F 58% 30.10 in 10.0 mi North 19.6 mph 32.2 mph N/A   Mostly Cloudy
3:55 PM 51.8 °F - 35.6 °F 54% 30.10 in 10.0 mi NNE 19.6 mph 29.9 mph N/A   Partly Cloudy
4:15 PM 53.6 °F - 35.6 °F 51% 30.10 in 10.0 mi North 17.3 mph 31.1 mph N/A   Clear
4:35 PM 53.6 °F - 35.6 °F 51% 30.10 in 10.0 mi NNE 20.7 mph 29.9 mph N/A   Clear
4:55 PM 53.6 °F - 35.6 °F 51% 30.11 in 10.0 mi North 19.6 mph 26.5 mph N/A   Clear
5:15 PM 53.6 °F - 35.6 °F 51% 30.11 in 10.0 mi NNE 20.7 mph 29.9 mph N/A   Clear
5:35 PM 51.8 °F - 35.6 °F 54% 30.12 in 10.0 mi NNE 21.9 mph 26.5 mph N/A   Clear
5:55 PM 51.8 °F - 35.6 °F 54% 30.13 in 10.0 mi NNE 19.6 mph 28.8 mph N/A   Clear
6:15 PM 50.0 °F - 35.6 °F 58% 30.13 in 10.0 mi NNE 17.3 mph 28.8 mph N/A   Clear
6:35 PM 50.0 °F - 35.6 °F 58% 30.15 in 10.0 mi NNE 21.9 mph 27.6 mph N/A   Clear
6:55 PM 48.2 °F - 35.6 °F 62% 30.16 in 10.0 mi NNE 15.0 mph 20.7 mph N/A   Clear
7:15 PM 48.2 °F - 35.6 °F 62% 30.16 in 10.0 mi NNE 17.3 mph 25.3 mph N/A   Unknown
7:35 PM 46.4 °F 39.8 °F 35.6 °F 66% 30.17 in 10.0 mi NNE 16.1 mph 20.7 mph N/A   Unknown
7:55 PM 46.4 °F 40.1 °F 35.6 °F 66% 30.19 in 10.0 mi NNE 15.0 mph 20.7 mph N/A   Unknown
8:15 PM 46.4 °F 41.1 °F 35.6 °F 66% 30.20 in 10.0 mi NNE 11.5 mph - N/A   Unknown
8:35 PM 44.6 °F 39.2 °F 35.6 °F 71% 30.21 in 10.0 mi NNE 10.4 mph - N/A   Unknown
8:55 PM 44.6 °F 38.8 °F 35.6 °F 71% 30.21 in 10.0 mi NNE 11.5 mph - N/A   Unknown
9:15 PM 44.6 °F 38.8 °F 35.6 °F 71% 30.22 in 10.0 mi NNE 11.5 mph - N/A   Unknown
9:35 PM 44.6 °F 38.8 °F 35.6 °F 71% 30.22 in 10.0 mi NNE 11.5 mph - N/A   Unknown
9:55 PM 42.8 °F 37.0 °F 35.6 °F 76% 30.22 in 10.0 mi NNE 10.4 mph - N/A   Unknown
10:15 PM 42.8 °F 36.2 °F 35.6 °F 76% 30.22 in 10.0 mi NNE 12.7 mph - N/A   Unknown
10:35 PM 42.8 °F 36.2 °F 35.6 °F 76% 30.23 in 10.0 mi NNE 12.7 mph - N/A   Unknown
10:55 PM 42.8 °F 34.5 °F 33.8 °F 70% 30.23 in 10.0 mi NNE 18.4 mph - N/A   Unknown
11:15 PM 42.8 °F 35.4 °F 33.8 °F 70% 30.24 in 10.0 mi NNE 15.0 mph 18.4 mph N/A   Unknown
11:35 PM 42.8 °F 36.2 °F 33.8 °F 70% 30.25 in 10.0 mi NNE 12.7 mph 18.4 mph N/A   Unknown